INTELSAT 15 (IS-15)

Last updated on Sat Apr 13 2024 01:02:37 GMT+0100 (British Summer Time)

1 36106U 09067A 24103.53769289 -.00000194 00000+0 00000+0 0 9990 2 36106 0.0172 172.8091 0002303 216.8831 90.2370 1.00271364 33251
UTC large
Height (km)
Speed (km/s)
/
Latitude / Longitude
Inclination (degrees)
Orbital Period (minutes)
Azimuth
Elevation
Range (km)
Doppler Factor

Next 0 passes for location: London (51.5072 / 0.1276)

Sorry there are no passes over London.